Location: Bluff Heights
(33.7692°N, 118.1592°W)
Time: 06:53:36
(UTC+00:00)

S-56A Canister/Altair - Visible Passes

Search period start: 24 July 2021 00:00
Search period end: 03 August 2021 00:00
Orbit: 632 x 2501 km, 38.9° (Epoch: 23 July)

Date Brightness Start Highest point End Pass type
(mag) Time Alt. Az. Time Alt. Az. Time Alt. Az.
24 Jul 9.9 03:55:44 10° W 04:10:20 70° N 04:20:48 10° E visible
24 Jul 8.9 06:04:04 10° WNW 06:16:49 85° SSW 06:18:48 63° SE visible
24 Jul 10.4 08:12:20 10° WNW 08:16:11 21° W 08:16:11 21° W visible
25 Jul 10.0 03:21:50 10° W 03:36:47 70° N 03:47:59 10° E visible
25 Jul 9.2 05:30:12 10° WNW 05:43:40 90° NNE 05:47:27 45° ESE visible
25 Jul 10.0 07:38:23 10° WNW 07:44:50 30° W 07:44:50 30° W visible
26 Jul 9.4 04:56:20 10° WNW 05:10:25 85° NNE 05:16:07 32° ESE visible
26 Jul 9.6 07:04:27 10° WNW 07:13:31 41° WSW 07:13:31 41° WSW visible
27 Jul 9.6 04:22:28 10° WNW 04:37:02 81° NNE 04:44:49 22° ESE visible
27 Jul 9.3 06:30:32 10° WNW 06:42:13 51° SW 06:42:13 51° SW visible
28 Jul 9.8 03:48:37 10° WNW 04:03:34 79° NNE 04:13:33 14° E visible
28 Jul 9.2 05:56:38 10° WNW 06:09:27 58° SW 06:10:56 54° S visible
28 Jul 10.9 08:07:14 10° W 08:08:20 12° W 08:08:20 12° W visible
29 Jul 10.0 03:14:47 10° WNW 03:30:01 76° NNE 03:41:40 10° E visible
29 Jul 9.3 05:22:45 10° WNW 05:36:22 65° SW 05:39:42 47° SSE visible
29 Jul 10.7 07:32:27 10° W 07:37:06 18° WSW 07:37:06 18° WSW visible
30 Jul 9.5 04:48:54 10° WNW 05:03:10 72° SSW 05:08:29 36° SE visible
30 Jul 10.4 06:58:00 10° W 07:05:54 24° WSW 07:05:54 24° WSW visible
31 Jul 9.7 04:15:04 10° WNW 04:29:51 78° SSW 04:37:19 26° SE visible
31 Jul 10.1 06:23:44 10° WNW 06:34:17 30° SW 06:34:43 30° SW visible
01 Aug 9.8 03:41:17 10° WNW 03:56:26 84° SSW 04:06:11 17° ESE visible
01 Aug 10.0 05:49:36 10° WNW 06:01:23 36° SW 06:03:35 34° SSW visible
02 Aug 9.9 03:07:33 10° WNW 03:22:55 88° SSW 03:35:04 10° ESE visible
02 Aug 9.9 05:15:33 10° WNW 05:28:22 42° SW 05:32:30 33° S visible
